Location: Hillern
(53.0557°N, 9.8577°E)
Time: 00:03:17
(UTC+00:00)

Cosmos 1766 - Pass Details

Date: 19 May 2025
Orbit: 443 x 457 km, 82.5° (Epoch: 15 June)

Event Time Altitude Azimuth Distance (km) Brightness Sun altitude
Rises 21:26:13 0° 356° (N) 2,467 8.0 -13.1°
Reaches altitude 10° 21:28:30 10° 8° (N) 1,587 6.5 -13.3°
Maximum altitude 21:31:33 28° 70° (ENE) 865 4.3 -13.5°
Enters shadow 21:33:14 19° 116° (ESE) 1,132 4.5 -13.6°
